Lapse_Rate
5.9 5.6 5.3 4.8 4.6 4.6 4.5 6.1 6.0 7.0 6.7 5.9 4.3 4.0 4.5 5.4 4.6 4.4 4.7 7.4 7.7 7.6 7.6 7.5 8.2 8.1 7.6 7.3 7.2 7.3 7.0 7.4 7.5 7.9 7.4 7.5 6.8 7.6 7.1 6.8 5.4 6.3 7.1
6.2 5.8 5.7 5.8 5.4 5.2 5.0 4.5 6.5 6.8 7.1 6.4 4.8 3.5 4.4 5.4 4.4 5.7 6.0 8.2 7.5 7.6 8.1 8.3 8.5 8.6 7.3 7.3 7.4 6.5 7.0 7.5 7.4 7.0 6.8 7.5 7.6 7.3 7.4 6.6 6.1 5.6 6.3
6.4 6.0 6.0 6.0 6.1 5.6 6.2 5.8 5.8 7.0 7.3 6.7 5.1 4.4 5.1 5.2 5.6 6.4 7.3 8.1 8.6 8.6 8.3 8.6 8.2 8.2 7.5 7.3 6.5 6.6 7.5 7.7 6.8 7.1 7.4 7.7 8.1 7.4 6.7 6.5 5.4 6.1 6.3
6.1 5.9 5.8 6.2 6.1 6.6 7.1 7.1 7.1 7.2 7.0 6.1 5.5 4.5 3.0 4.5 6.9 7.5 8.0 8.2 8.0 8.3 8.4 8.7 8.5 8.1 7.1 6.5 6.9 7.0 6.9 6.1 6.6 7.3 7.0 7.5 7.4 7.7 6.6 6.6 6.1 6.5 5.8
5.6 5.8 6.0 6.3 6.7 7.6 7.3 7.3 7.2 7.0 6.1 4.5 4.5 4.2 4.6 5.5 7.5 7.1 7.8 7.9 7.6 8.3 8.6 8.6 8.4 7.5 6.9 6.5 6.6 5.7 5.7 5.8 6.8 6.9 6.7 7.0 7.1 7.1 6.2 6.0 4.9 4.6 4.8
5.4 5.8 6.4 6.5 6.8 7.3 7.5 6.8 6.7 6.1 5.2 5.7 4.3 5.1 6.1 7.5 7.1 5.5 7.1 7.8 8.5 8.6 7.9 8.4 8.2 7.8 6.9 5.1 5.7 5.7 5.4 6.0 6.8 6.4 6.9 5.7 5.9 5.4 5.7 4.6 3.6 3.9 5.7
5.3 6.1 6.3 6.7 7.2 7.2 6.9 6.8 6.5 5.8 5.7 5.8 6.0 6.5 6.5 6.0 2.4 3.2 5.0 7.1 7.6 7.9 8.0 7.7 8.2 8.9 5.9 5.5 5.5 5.7 5.9 6.5 7.3 6.9 6.3 5.5 4.9 4.6 4.1 3.9 3.7 4.4 5.2
6.1 6.7 6.6 7.0 7.3 7.0 6.7 6.6 6.4 5.5 5.4 6.2 6.5 7.2 7.0 4.7 2.0 2.5 3.5 6.5 6.8 7.0 7.5 8.2 7.6 7.4 2.3 3.6 4.7 5.1 6.0 6.7 6.9 6.8 6.4 4.9 4.5 3.7 3.4 4.0 4.4 4.6 5.1
7.1 7.0 7.5 7.1 6.7 6.6 6.6 6.4 6.0 5.6 5.9 5.8 6.3 7.3 6.4 4.3 1.2 1.4 3.7 6.0 6.4 7.5 7.9 7.6 6.3 3.8 1.6 2.4 3.6 4.8 5.4 6.1 6.5 6.2 5.7 4.0 3.7 3.1 4.0 4.0 4.9 5.5 5.6
8.2 7.2 6.6 6.6 6.7 5.3 5.4 6.0 6.0 6.2 5.7 6.4 7.4 6.3 6.6 4.3 0.4 0.6 3.8 6.0 7.2 7.7 7.7 2.6 1.9 2.3 1.8 1.3 2.9 4.8 5.5 5.2 5.1 4.7 5.8 5.3 3.2 3.1 3.9 4.0 4.8 5.5 6.1
6.1 6.2 5.3 6.4 4.8 3.3 4.4 5.8 5.0 5.5 6.2 5.7 5.1 5.4 6.3 3.3 -1.2 0.1 0.6 4.9 5.4 5.9 6.6 6.4 3.7 1.8 1.1 1.2 1.7 5.1 5.5 4.2 4.7 6.3 6.9 5.1 3.6 3.2 2.9 3.7 4.7 5.1 6.1
6.2 6.0 6.0 5.0 5.9 6.7 4.5 3.9 4.9 5.5 4.7 5.9 6.9 6.8 5.6 2.1 -0.4 -0.7 0.1 1.8 2.9 5.1 6.2 5.9 5.6 3.2 2.4 1.7 2.6 4.5 3.3 4.3 6.6 7.5 7.6 7.4 5.2 6.4 4.7 3.3 4.4 4.6 5.2
6.7 7.0 6.6 7.0 6.3 5.5 5.6 6.2 7.2 7.0 7.0 6.1 5.2 6.4 5.5 3.2 2.3 -0.8 0.2 2.2 2.6 4.3 6.2 4.8 4.5 3.5 3.0 3.8 5.0 3.8 6.1 6.1 7.0 7.6 7.0 7.1 6.2 6.2 4.6 4.4 4.0 4.7 4.6
6.7 5.9 5.5 5.3 5.7 6.8 7.1 7.1 7.4 7.1 5.9 5.5 6.1 5.9 6.1 5.9 2.9 3.6 3.8 3.2 1.9 3.1 5.4 5.9 5.9 5.8 5.7 5.9 7.3 7.3 6.5 6.0 7.0 7.5 7.6 7.1 6.4 6.1 6.7 6.7 4.7 4.3 4.0
6.8 6.8 6.9 5.2 5.3 2.8 1.6 1.8 5.7 0.2 1.4 5.0 6.0 5.8 5.4 4.9 4.4 3.0 4.7 5.7 5.5 2.4 1.8 6.3 7.3 7.4 7.5 7.3 7.6 7.4 7.0 6.6 7.0 7.4 7.3 6.7 7.0 6.2 6.7 6.8 6.8 5.5 4.2
6.5 6.7 7.6 6.7 4.3 3.3 2.7 0.7 -4.4 -3.7 -4.3 -1.5 0.1 4.0 -0.5 -0.3 -2.6 -1.4 -1.0 0.6 1.7 1.4 5.6 7.6 7.3 7.7 7.7 7.7 7.6 7.8 7.6 7.3 7.5 7.6 7.4 7.0 6.7 6.9 6.3 6.4 6.5 6.8 6.8
8.0 8.1 7.2 8.3 6.9 5.9 4.4 3.8 1.8 0.3 -2.6 -3.7 -2.8 -2.4 -0.3 -2.2 -2.2 -1.6 -0.3 1.5 2.4 2.4 7.2 7.5 7.7 7.7 7.9 8.0 8.1 8.2 8.2 7.5 7.0 7.6 7.2 6.6 6.2 6.6 7.3 6.5 6.3 6.7 6.7
5.9 3.7 7.3 7.6 6.7 6.0 6.8 5.9 6.0 6.0 4.6 4.0 -1.3 -0.3 -3.2 -2.8 -2.5 -2.0 -0.7 0.8 6.3 4.8 7.7 7.9 7.8 7.9 7.9 8.0 8.1 8.2 8.1 6.8 6.7 6.7 6.4 6.5 6.2 6.1 6.5 6.9 7.1 6.8 6.6
8.2 7.9 8.0 8.4 7.8 7.0 7.9 6.7 7.4 8.6 6.4 3.5 2.9 2.3 -0.8 -2.5 -1.8 -0.6 -0.7 4.7 8.0 8.1 8.3 7.9 7.9 8.1 7.8 8.2 8.2 8.2 8.2 7.7 7.5 7.5 7.3 7.1 7.0 7.1 6.7 7.4 6.6 5.5 5.8
8.0 5.4 6.7 8.5 8.1 8.1 7.4 7.1 6.3 6.6 6.8 5.7 6.0 6.0 5.5 5.0 6.1 6.8 7.3 8.2 8.3 8.5 8.7 8.5 7.6 7.2 7.4 7.8 7.7 7.8 8.2 7.7 7.7 7.9 7.5 7.3 7.0 7.2 7.5 7.4 7.0 6.2 5.7
8.8 7.8 4.0 8.8 9.0 8.9 8.6 8.5 8.0 7.1 8.5 7.7 8.6 7.2 4.9 8.0 8.8 8.8 8.6 8.7 8.8 8.8 8.3 8.3 8.9 8.4 8.2 8.1 7.4 8.0 8.5 8.7 8.2 7.8 7.6 7.7 7.0 7.3 7.3 7.2 7.5 6.7 5.9
8.8 8.9 8.9 8.9 6.5 7.5 8.2 5.9 7.2 8.9 8.9 8.3 8.6 5.9 1.8 6.2 9.1 8.7 8.5 8.8 8.8 8.5 8.2 8.3 8.5 8.7 8.8 8.6 7.8 7.3 8.0 7.6 7.9 7.8 7.8 8.0 7.6 7.4 7.6 7.7 7.7 7.7 6.9
9.2 8.9 8.9 8.1 5.9 6.0 7.3 5.0 7.4 6.1 6.6 7.4 7.3 7.1 7.7 9.0 9.0 8.8 7.6 8.9 8.7 8.9 9.1 9.1 8.8 9.0 9.3 8.7 6.4 4.8 4.6 4.0 4.4 7.3 7.1 8.1 8.2 7.3 7.8 7.7 7.9 7.7 7.5
9.1 9.0 9.0 7.1 8.1 7.3 8.2 7.8 7.5 5.7 6.9 7.2 7.8 8.1 9.1 8.9 8.6 7.6 8.0 9.1 9.1 9.1 9.1 8.4 7.7 7.6 7.6 6.8 5.4 4.0 1.7 0.0 1.8 3.9 4.3 6.7 8.4 7.9 8.2 7.9 8.3 8.0 8.0
8.1 8.7 8.7 6.6 6.3 8.5 8.5 7.1 6.2 6.4 7.5 7.6 8.9 9.1 7.4 7.0 7.6 6.9 8.6 8.9 9.3 9.1 8.6 8.8 8.4 6.8 5.8 5.0 3.7 2.4 0.1 0.2 1.0 1.2 3.5 5.7 8.5 7.4 8.6 8.4 8.0 8.1 8.1
8.4 9.0 9.1 9.1 9.0 8.1 7.1 5.3 6.2 5.6 7.0 8.6 6.6 6.3 6.4 7.9 7.7 7.9 9.1 9.3 9.3 9.4 9.5 9.2 9.3 8.5 6.3 4.6 1.9 0.9 1.0 0.9 1.2 2.8 2.3 8.2 8.8 7.5 7.7 8.6 8.8 8.5 8.5
Wind_Speed
19 18 17 16 16 14 14 11 12 9 9 8 10 10 8 8 6 6 7 4 5 4 3 1 3 3 3 4 4 4 6 7 10 10 11 12 14 14 12 24 26 22 20
17 17 16 15 15 15 14 15 10 11 8 8 9 8 9 9 7 9 7 6 6 5 4 4 2 3 4 5 3 5 7 6 8 14 13 12 14 16 16 17 16 23 17
16 16 15 15 15 14 14 12 12 10 11 9 8 7 7 6 8 6 6 5 2 2 3 2 3 4 5 3 4 5 7 6 9 9 12 12 12 14 19 16 16 15 14
17 16 16 15 14 13 12 12 12 10 10 10 10 7 5 6 7 5 5 4 2 3 4 1 4 5 4 6 5 6 6 8 9 9 10 11 13 17 14 14 15 12 13
14 15 15 14 12 12 12 12 10 10 9 8 8 10 10 12 7 7 5 5 5 5 2 4 5 5 9 4 3 4 6 8 8 8 8 10 14 18 15 14 14 14 15
13 14 13 12 11 10 10 10 9 9 9 11 12 10 9 6 6 11 8 4 3 1 4 4 4 6 5 9 3 12 10 9 9 5 7 10 16 17 13 13 14 12 5
11 12 11 11 10 10 10 10 11 10 9 10 10 8 6 6 6 10 7 2 2 3 3 4 3 5 6 4 7 10 11 14 7 5 7 8 14 17 15 18 18 15 5
11 11 10 10 10 9 9 8 7 8 8 5 3 3 5 5 8 9 7 2 2 3 4 3 3 2 6 5 5 7 8 9 7 7 3 4 10 16 17 14 14 13 10
11 10 10 10 9 7 7 6 7 6 5 5 8 3 7 5 5 9 5 4 4 5 5 4 4 8 5 8 5 7 8 8 12 15 8 4 11 25 23 13 13 11 11
10 10 9 8 7 7 6 7 6 6 6 3 3 8 7 6 2 3 3 3 5 3 3 7 13 7 5 5 4 5 7 9 10 12 9 5 5 7 18 15 11 11 9
13 11 9 9 8 9 9 7 8 11 9 10 10 9 10 13 9 7 7 2 4 4 4 5 3 3 5 4 4 5 5 7 10 9 2 4 6 6 4 9 14 12 11
14 12 10 8 9 6 12 12 9 7 8 6 4 5 6 7 12 8 9 6 3 3 4 4 4 5 9 7 7 8 9 8 7 8 8 7 8 10 8 4 11 13 10
12 12 11 11 9 8 6 7 7 5 5 5 4 4 6 5 5 8 9 5 4 1 2 2 6 8 10 8 4 8 7 7 8 6 6 6 5 8 7 2 4 8 12
11 11 9 11 11 9 7 7 6 8 5 4 5 4 5 6 5 4 4 4 5 3 6 3 6 4 7 5 4 6 6 6 7 7 7 8 5 6 7 9 2 7 11
10 10 9 9 10 8 7 4 3 5 2 3 5 5 5 5 3 6 5 4 3 3 4 4 2 3 3 4 3 4 4 4 6 6 6 7 8 5 8 8 10 2 8
10 9 8 8 7 7 7 7 14 6 7 6 5 8 3 11 11 13 12 11 6 4 2 2 4 4 4 4 5 5 5 7 6 6 6 7 7 8 4 6 7 7 6
5 9 7 7 6 5 5 6 8 6 14 16 11 13 13 13 12 13 11 4 3 2 1 4 4 4 5 5 5 5 6 6 7 7 6 8 8 10 9 4 6 6 7
7 8 6 5 4 5 6 6 7 7 7 6 11 8 10 12 11 11 8 3 2 3 5 4 4 4 4 4 5 5 5 4 5 4 4 4 5 6 8 9 7 5 5
6 5 5 6 7 7 6 6 6 8 8 8 7 5 6 9 9 5 2 3 4 5 4 5 4 4 4 4 4 3 3 3 4 4 5 4 4 3 4 7 8 11 8
5 4 3 5 7 6 4 5 6 6 9 8 7 8 7 5 4 4 3 4 4 5 4 4 4 3 4 3 4 4 4 4 5 5 6 4 7 5 5 5 6 8 8
5 3 5 4 6 6 4 4 7 7 8 8 8 9 11 7 5 5 6 4 4 5 5 4 5 4 4 4 4 5 5 5 5 6 6 5 6 6 4 5 5 7 8
7 7 5 5 6 7 7 5 6 8 9 8 9 10 13 6 5 4 6 6 5 5 4 2 4 4 4 4 6 7 7 6 6 6 6 6 5 7 5 5 6 5 6
4 9 6 5 4 7 8 6 6 5 5 8 10 9 8 5 5 4 7 7 6 5 4 4 4 4 7 9 12 8 6 6 6 7 8 7 5 6 4 4 5 5 4
4 3 3 4 5 6 9 8 8 8 7 10 10 8 7 7 7 6 6 7 6 5 8 9 9 9 10 11 12 11 9 8 10 11 13 9 4 6 4 5 5 6 5
2 5 7 7 4 5 6 6 5 4 9 8 10 8 8 5 5 3 7 6 6 5 5 9 11 13 12 12 11 10 9 12 7 13 12 10 6 8 5 4 4 5 6
4 6 4 4 3 5 5 5 6 4 5 8 9 9 8 8 5 5 7 7 6 6 7 8 10 13 12 10 9 10 12 14 15 22 16 5 5 4 6 5 7 5 6
Wind_Direction
199 202 205 207 211 212 217 224 218 210 211 166 166 159 171 196 176 229 203 259 195 177 231 252 258 295 280 327 297 300 323 322 308 315 310 311 310 303 321 311 309 302 290
196 200 204 207 208 213 216 216 229 213 202 170 165 172 186 191 182 214 219 240 181 189 211 242 289 304 310 285 325 333 300 317 316 317 309 315 313 318 311 311 305 298 290
198 195 202 203 209 211 211 215 212 217 211 180 169 176 175 182 219 191 225 232 200 226 224 250 304 299 285 357 317 305 313 322 322 311 311 321 317 324 314 304 296 292 284
190 193 199 202 206 208 205 205 210 207 210 178 163 172 177 214 227 209 215 174 203 252 232 354 287 294 347 315 318 304 343 326 315 310 321 321 332 327 314 309 304 297 294
183 188 195 199 202 202 197 204 195 200 156 157 154 170 191 208 201 203 198 163 183 227 3 270 282 8 334 310 356 351 329 316 309 324 318 332 335 331 322 316 307 307 298
177 181 182 190 193 202 198 186 179 166 165 164 172 190 193 208 213 172 151 190 144 227 233 277 341 316 14 91 38 353 326 301 309 337 334 339 337 330 319 320 312 310 314
167 171 174 179 185 189 172 170 171 169 161 172 183 181 171 108 117 113 114 129 150 234 326 297 322 335 49 13 357 330 313 310 341 353 338 347 346 333 329 325 322 314 291
162 167 167 170 181 163 164 169 163 153 157 153 110 126 148 141 126 113 129 143 232 268 271 277 288 310 58 31 336 322 321 318 348 335 336 324 3 341 340 325 312 308 308
164 162 155 147 148 153 160 151 135 133 133 145 142 134 93 119 132 134 162 184 238 246 243 21 357 76 43 26 347 319 315 327 327 317 297 343 10 355 342 337 344 339 344
165 127 123 135 142 128 141 138 135 123 114 97 143 120 122 119 67 147 83 319 308 341 21 81 64 58 359 335 320 318 320 322 317 316 320 284 319 334 350 349 339 345 346
112 119 126 138 131 147 151 149 141 138 147 151 177 159 154 153 151 128 79 11 360 1 353 97 84 192 271 320 297 272 294 315 310 318 272 322 312 316 333 352 357 348 350
125 136 151 139 150 161 135 143 153 168 144 135 169 154 118 118 126 127 102 83 19 351 316 67 34 343 305 318 293 300 328 324 343 335 357 357 346 345 329 342 356 358 357
134 148 129 126 118 124 124 126 136 152 146 163 182 184 139 121 100 128 133 164 229 280 356 4 258 275 286 288 303 293 19 1 347 342 2 342 345 336 319 325 353 360 6
114 117 128 128 128 143 155 160 161 172 157 168 180 180 161 139 135 154 184 186 233 263 272 255 238 279 284 266 335 46 43 355 352 343 353 342 320 349 348 358 57 20 28
140 136 141 144 143 117 77 46 76 27 354 183 176 159 150 186 169 142 140 106 68 74 337 266 80 31 21 26 11 54 50 357 359 342 351 348 349 5 9 2 3 65 47
148 150 156 150 148 138 127 95 45 53 81 23 137 127 68 121 152 110 103 102 93 40 264 36 47 26 25 23 17 21 45 5 352 353 346 348 348 1 7 11 10 6 32
128 135 152 151 155 140 114 137 111 66 60 49 77 115 121 140 117 105 107 107 233 274 255 60 49 32 25 21 25 22 21 18 2 2 4 0 1 352 359 24 7 11 13
78 74 130 147 129 148 167 169 145 147 115 96 44 80 110 113 102 100 96 18 264 205 89 57 52 47 32 31 28 20 28 21 5 359 343 341 359 5 3 11 7 9 14
139 158 168 167 171 170 169 145 178 144 130 114 117 99 80 78 90 92 54 257 61 63 61 86 46 49 44 23 10 347 25 34 338 341 343 341 331 22 9 12 12 8 353
156 96 50 134 162 166 160 111 108 113 122 138 152 143 140 137 154 177 209 79 74 61 56 83 93 60 73 32 349 331 27 47 11 3 345 350 348 356 7 16 44 9 2
143 149 71 171 174 155 153 144 132 152 155 155 154 149 167 191 170 156 120 99 89 87 64 23 54 50 45 44 11 347 31 35 26 0 346 353 0 346 7 9 44 32 5
160 158 192 226 149 167 165 140 149 168 152 167 145 155 177 226 135 114 110 113 100 77 94 60 74 62 60 40 39 5 27 22 13 1 342 350 19 345 360 34 13 44 23
209 167 168 115 122 121 175 133 164 133 137 135 132 151 171 164 156 126 103 107 108 102 86 66 81 59 67 59 62 42 27 14 340 359 345 342 5 345 4 21 29 25 20
182 208 165 91 99 98 110 138 153 150 143 141 141 157 174 127 133 117 120 109 103 109 102 81 66 54 41 54 47 50 37 12 341 358 333 321 25 342 8 3 49 18 31
246 91 73 68 39 119 127 132 129 138 142 153 156 157 114 128 151 176 109 115 121 105 97 114 115 94 73 65 53 40 21 18 8 349 333 321 7 355 10 25 28 32 31
62 79 89 101 110 96 67 103 118 82 118 126 121 130 140 158 182 131 127 136 139 137 116 98 96 102 97 78 58 38 24 12 1 351 339 316 40 33 348 17 39 38 52